Change the Weather History Date:

Sunday, October 30, 2011

  Actual Average Record
Temperature  
Mean Temperature 42 °F -  
Max Temperature 57 °F 52 °F 79 °F (1968)
Min Temperature 28 °F 26 °F 11 °F (1993)
Degree Days  
Heating Degree Days 22    
Moisture  
Dew Point 29 °F    
Average Humidity 70    
Maximum Humidity 87    
Minimum Humidity 38    
Precipitation  
Precipitation 0.00 in - - ()
Sea Level Pressure  
Sea Level Pressure 30.19 in    
Wind  
Wind Speed 3 mph (West)    
Max Wind Speed 9 mph    
Max Gust Speed -    
Visibility 10 miles    
Events      
Averages and records for this station are not official NWS values.
T = Trace of Precipitation, MM = Missing Value Source: NWS Daily Summary

Daily Weather History Graph

Daily Weather History Graph

Search for Another Location

Airport or City:

Trip Planner

Search our weather history database for the weather conditions in past years. The results will help you decide how hot, cold, wet, or windy it might be!

Date:

Astronomy

Oct. 30, 2011 Rise Set
Actual Time 7:25 AM MDT 5:57 PM MDT
Civil Twilight 6:57 AM MDT 6:26 PM MDT
Nautical Twilight 6:25 AM MDT 6:58 PM MDT
Astronomical Twilight 5:53 AM MDT 7:29 PM MDT
Moon 11:47 AM MDT (10/30) 9:29 PM MDT (10/30)
Length of Visible Light 11h 28m
Length of Day
10h 32m
Waxing Crescent, 20% of the Moon is Illuminated
Oct 30
Waxing Crescent
Nov 2
First Quarter
Nov 10
Full
Nov 18
Last Quarter
Nov 24
New

Hourly Weather History & Observations

Time (MDT) Temp. Windchill Dew Point Humidity Pressure Visibility Wind Dir Wind Speed Gust Speed Precip Events Conditions
12:55 AM 35.6 °F 30.7 °F 28.4 °F 75% 30.19 in 10.0 mi WNW 5.8 mph - N/A   Clear
2:35 AM 33.8 °F 28.6 °F 26.6 °F 75% 30.21 in 10.0 mi SW 5.8 mph - N/A   Clear
3:55 AM 33.8 °F 28.6 °F 26.6 °F 75% 30.21 in 10.0 mi SSW 5.8 mph - N/A   Clear
4:15 AM 30.2 °F 26.7 °F 26.6 °F 86% 30.21 in 10.0 mi NW 3.5 mph - N/A   Clear
4:35 AM 30.2 °F - 24.8 °F 80% 30.21 in 10.0 mi Calm Calm - N/A   Clear
5:15 AM 28.4 °F - 24.8 °F 86% 30.22 in 10.0 mi Calm Calm - N/A   Clear
5:35 AM 28.4 °F - 24.8 °F 86% 30.21 in 10.0 mi Calm Calm - N/A   Clear
6:15 AM 28.4 °F - 24.8 °F 86% 30.21 in 10.0 mi Calm Calm - N/A   Clear
6:35 AM 28.4 °F - 24.8 °F 86% 30.21 in 10.0 mi Calm Calm - N/A   Clear
6:55 AM 28.4 °F - 24.8 °F 86% 30.21 in 10.0 mi Calm Calm - N/A   Clear
7:35 AM 28.4 °F - 23.0 °F 80% 30.22 in 10.0 mi Calm Calm - N/A   Clear
7:55 AM 28.4 °F - 24.8 °F 86% 30.21 in 10.0 mi Calm Calm - N/A   Clear
8:35 AM 32.0 °F - 28.4 °F 87% 30.23 in 10.0 mi Calm Calm - N/A   Clear
9:15 AM 32.0 °F - 28.4 °F 87% 30.24 in 10.0 mi Calm Calm - N/A   Clear
9:35 AM 33.8 °F 30.8 °F 28.4 °F 81% 30.24 in 10.0 mi NE 3.5 mph - N/A   Clear
9:55 AM 35.6 °F - 28.4 °F 75% 30.24 in 10.0 mi Calm Calm - N/A   Clear
10:35 AM 37.4 °F - 30.2 °F 75% 30.25 in 10.0 mi Calm Calm - N/A   Clear
10:55 AM 41.0 °F - 32.0 °F 70% 30.24 in 10.0 mi Calm Calm - N/A   Clear
11:35 AM 44.6 °F - 30.2 °F 57% 30.23 in 10.0 mi Calm Calm - N/A   Clear
11:55 AM 46.4 °F 45.2 °F 32.0 °F 57% 30.23 in 10.0 mi South 3.5 mph - N/A   Clear
12:15 PM 50.0 °F - 30.2 °F 47% 30.22 in 10.0 mi South 3.5 mph - N/A   Clear
1:15 PM 51.8 °F - 30.2 °F 44% 30.19 in 10.0 mi Calm Calm - N/A   Clear
1:35 PM 53.6 °F - 30.2 °F 41% 30.18 in 10.0 mi Calm Calm - N/A   Clear
1:55 PM 53.6 °F - 30.2 °F 41% 30.17 in 10.0 mi Calm Calm - N/A   Clear
2:35 PM 55.4 °F - 30.2 °F 38% 30.16 in 10.0 mi SSW 3.5 mph - N/A   Clear
2:55 PM 55.4 °F - 30.2 °F 38% 30.15 in 10.0 mi ESE 3.5 mph - N/A   Clear
3:35 PM 57.2 °F - 32.0 °F 38% 30.14 in 10.0 mi South 5.8 mph - N/A   Clear
4:15 PM 57.2 °F - 35.6 °F 44% 30.14 in 10.0 mi South 5.8 mph - N/A   Clear
4:35 PM 57.2 °F - 35.6 °F 44% 30.14 in 10.0 mi SSE 6.9 mph - N/A   Clear
5:15 PM 53.6 °F - 35.6 °F 51% 30.14 in 10.0 mi SE 6.9 mph - N/A   Clear
6:15 PM 48.2 °F - 33.8 °F 58% 30.15 in 10.0 mi Calm Calm - N/A   Clear
7:15 PM 39.2 °F 37.0 °F 33.8 °F 81% 30.16 in 10.0 mi NE 3.5 mph - N/A   Clear
7:55 PM 37.4 °F 33.8 °F 30.2 °F 75% 30.15 in 10.0 mi NE 4.6 mph - N/A   Clear
8:15 PM 39.2 °F 37.0 °F 30.2 °F 70% 30.15 in 10.0 mi North 3.5 mph - N/A   Clear
8:35 PM 37.4 °F 33.8 °F 30.2 °F 75% 30.16 in 10.0 mi NNW 4.6 mph - N/A   Clear
9:35 PM 35.6 °F 30.7 °F 30.2 °F 81% 30.16 in 10.0 mi North 5.8 mph - N/A   Clear
9:55 PM 35.6 °F 30.7 °F 30.2 °F 81% 30.15 in 10.0 mi NNE 5.8 mph - N/A   Clear
10:35 PM 35.6 °F 30.7 °F 30.2 °F 81% 30.16 in 10.0 mi WNW 5.8 mph - N/A   Clear
10:55 PM 33.8 °F - 28.4 °F 81% 30.15 in 10.0 mi Calm Calm - N/A   Clear
11:35 PM 32.0 °F 24.2 °F 28.4 °F 87% 30.15 in 10.0 mi NW 9.2 mph - N/A   Clear
11:55 PM 32.0 °F 27.5 °F 28.4 °F 87% 30.14 in 10.0 mi WNW 4.6 mph - N/A   Clear